Powrót do katalogu

STARLINK-5126

AktywnyŁącznośćVLEO
NORAD 54012·PAYLOAD·🇺🇸 United States

Wystrzelony Oct 5, 2022 z Vandenberg Space Force Base

Loading…

Następne Przeloty (najbliższe 24 godziny)

TLE

ŚwieżeSource: CelesTrak SupGP

Epoka: Sep 15, 2026, 01:32 UTC

1 54012C 22125BA  26258.06437500 -.00027941  00000+0 -89868-3 0  2586
2 54012  53.1593  60.2734 0001268  86.6466 101.3028 15.31709872    14

Śledź STARLINK-5126 w czasie rzeczywistym z AllMySat

Download on the App Store